Theta_e
318 317 316 315 315 314 314 314 313 314 315 317 323 327 329 329 328 327 332 334 334 332 329 332 332 333 332 333 340 343 339 344 347 350 349 353 353 352 353 351 350 350 350 349 349
319 318 318 317 316 315 315 314 314 314 315 316 322 327 329 330 327 324 333 333 334 330 328 330 333 333 333 333 340 338 338 342 342 345 350 352 348 353 352 351 352 349 349 350 349
318 319 319 318 317 316 315 315 314 314 314 316 320 326 328 329 327 326 326 329 328 329 330 330 334 332 331 331 337 338 338 340 341 345 348 352 349 352 352 352 351 350 350 350 349
316 318 319 319 318 317 316 315 315 314 314 315 319 324 327 327 329 330 330 329 328 326 330 334 333 331 328 328 331 339 338 341 340 345 349 351 350 351 350 347 348 348 348 350 349
314 316 318 319 319 318 317 316 315 315 315 315 317 322 325 325 328 329 330 329 330 325 326 335 332 329 328 328 331 334 335 339 340 342 344 346 350 349 349 347 348 347 350 350 350
313 315 317 318 319 319 318 317 316 315 315 315 316 320 323 324 328 331 330 330 330 329 331 333 330 329 329 329 329 331 331 335 338 340 341 344 345 348 347 345 349 347 349 350 350
313 314 315 317 318 319 319 318 317 316 315 315 316 318 323 327 329 330 329 328 328 329 334 331 330 330 330 328 330 331 331 330 333 338 338 342 341 340 346 349 348 347 349 349 350
313 313 314 316 317 318 319 318 317 316 315 315 316 317 324 326 328 328 328 328 328 329 330 331 331 330 329 329 327 328 329 332 333 333 335 338 337 331 342 349 347 346 347 349 349
315 313 314 315 317 318 319 318 317 316 316 316 316 318 324 326 327 327 327 327 328 329 330 329 329 328 327 324 323 324 329 330 333 333 333 333 334 330 336 349 347 345 345 347 348
319 315 314 314 317 318 319 318 317 316 316 315 316 322 324 324 325 326 327 327 327 328 328 328 328 322 319 322 326 327 326 327 328 329 332 332 331 328 344 348 347 346 345 344 344
320 318 315 314 317 318 318 317 316 316 316 316 316 322 325 322 325 326 327 327 327 327 324 324 322 324 324 324 325 326 325 325 325 325 332 331 329 329 330 348 348 347 346 345 344
321 317 316 315 317 318 318 321 323 321 321 323 320 319 319 319 323 325 326 327 326 324 323 321 323 324 323 323 323 323 325 324 323 325 327 327 327 326 326 340 347 347 348 347 345
322 317 315 315 317 318 319 320 325 325 320 325 326 326 324 322 323 325 326 326 325 324 323 323 324 323 324 323 324 323 323 323 323 324 325 326 325 327 326 328 331 342 345 348 348
321 316 314 315 317 318 319 325 327 324 321 324 325 325 323 323 322 325 326 326 324 325 322 323 323 325 324 323 322 323 321 323 326 323 325 324 325 324 325 329 329 334 337 340 344
321 317 314 315 317 321 326 328 324 323 329 327 325 325 323 322 321 323 325 325 323 324 322 324 324 324 323 323 321 322 324 325 325 323 323 325 324 324 326 328 328 330 336 338 339
319 318 314 315 322 326 328 328 325 320 331 329 323 321 320 321 321 322 324 324 325 323 321 321 323 323 321 324 322 323 324 321 321 320 325 323 325 327 337 334 330 333 341 339 337
320 318 314 316 325 328 329 326 320 324 326 328 324 320 319 320 321 322 321 321 321 322 320 320 322 322 323 325 323 321 320 323 326 325 326 320 328 330 334 338 337 341 343 337 335
322 321 315 320 328 328 329 323 328 328 327 326 323 320 322 320 321 322 320 320 320 318 317 321 327 326 324 325 325 323 321 322 329 326 325 322 331 330 339 341 343 344 343 342 343
324 328 317 322 327 329 328 325 324 327 329 330 325 324 324 324 323 321 321 318 319 318 321 321 327 326 327 325 324 324 324 320 320 320 324 325 331 332 340 341 342 345 345 345 345
327 326 320 325 329 330 324 325 326 325 327 327 328 325 324 324 323 321 320 321 322 318 320 321 327 326 327 325 324 323 321 324 320 329 330 327 329 329 343 343 342 344 346 346 346
331 331 322 325 329 330 326 325 326 329 328 326 328 326 325 329 322 319 321 327 328 324 320 322 324 326 324 323 324 322 322 318 318 321 328 329 329 326 341 341 341 342 347 346 346
329 329 322 326 326 318 323 324 326 326 327 326 326 327 328 326 327 328 329 328 327 327 327 323 320 326 327 323 321 321 322 318 321 323 321 324 327 329 339 338 337 339 345 347 347
325 331 325 327 322 320 320 323 325 326 327 325 326 325 323 326 328 327 328 327 327 326 327 324 322 326 327 323 323 324 323 316 314 315 322 322 323 328 331 333 336 342 346 346 346
328 328 328 328 323 320 323 324 325 326 324 326 326 324 325 325 323 326 326 326 325 327 323 323 318 324 326 326 322 325 325 320 318 320 320 320 322 321 331 330 332 341 346 345 344
327 322 323 327 325 323 322 323 327 326 325 326 326 325 325 327 326 326 324 324 325 324 322 319 323 323 323 323 323 324 325 323 323 320 323 323 320 332 333 334 329 342 344 343 342
324 323 324 323 324 321 319 326 326 326 325 327 325 323 324 325 326 326 324 324 325 323 320 315 322 322 326 324 323 324 322 321 323 327 325 328 336 331 330 333 335 335 337 336 336
320 324 324 321 318 320 320 325 324 325 325 326 324 322 322 323 324 323 324 323 323 323 320 320 317 318 322 319 322 323 320 325 329 328 329 333 331 330 328 327 327 327 328 327 327
Wind_Speed
6 6 6 6 6 5 5 5 5 5 5 5 4 4 6 7 9 12 11 4 6 9 12 12 13 18 4 5 5 3 4 0 3 4 4 11 4 8 4 6 4 10 4 7 26
7 7 7 6 6 6 6 6 6 5 5 5 5 4 5 8 10 12 7 7 8 10 10 13 18 22 4 2 4 3 3 5 4 6 6 11 8 12 5 6 4 4 6 12 28
8 8 7 7 7 6 6 6 5 6 6 5 5 4 5 6 8 2 0 3 5 5 7 11 15 14 4 3 1 2 3 5 4 7 21 13 3 10 12 4 13 13 18 26 30
9 8 8 8 7 6 6 6 5 6 6 6 5 4 5 5 3 4 2 3 5 4 5 9 13 12 6 5 6 3 6 5 5 8 9 4 3 6 12 3 7 11 19 31 32
9 9 8 8 7 7 6 5 6 6 6 6 6 5 4 4 7 3 1 2 5 5 4 7 9 8 3 4 5 2 2 5 8 9 8 5 10 4 14 15 6 15 24 32 33
9 9 8 8 7 7 6 5 5 6 6 6 6 5 4 3 4 4 2 1 6 4 3 6 9 14 2 3 0 7 8 6 9 13 4 5 2 5 8 15 16 22 28 28 31
8 8 8 8 7 6 6 5 5 6 6 6 6 6 8 10 3 4 3 5 5 3 1 7 11 9 8 5 5 5 4 5 7 9 5 9 5 9 15 18 25 28 30 29 31
7 7 8 7 7 6 5 5 5 5 5 6 6 6 8 7 11 8 6 5 3 3 2 5 9 7 2 7 7 3 4 5 4 5 4 11 11 6 13 23 26 30 31 31 32
7 6 6 6 6 5 4 4 4 4 5 5 5 5 6 6 14 11 8 5 4 1 4 7 7 1 2 3 5 7 1 4 7 5 3 3 9 5 14 26 22 28 32 33 33
7 5 5 5 6 5 5 4 4 4 5 4 5 3 8 1 6 8 7 3 1 2 2 4 4 3 4 6 2 6 6 3 5 5 4 3 14 7 11 25 24 26 30 34 35
8 4 4 5 6 6 6 6 4 3 9 7 2 3 1 7 3 8 8 3 0 3 3 5 5 2 3 4 5 3 3 5 5 8 3 6 7 17 11 19 17 25 31 35 38
9 4 3 6 7 7 8 2 1 2 5 12 16 16 16 11 1 7 10 4 3 2 1 6 3 2 4 4 4 4 4 7 7 5 3 3 9 12 3 12 29 27 31 38 35
10 4 3 7 8 8 7 3 1 6 1 3 6 8 5 5 2 9 10 5 3 2 2 4 4 6 2 1 1 3 5 4 6 5 3 4 8 5 4 6 14 25 32 34 39
10 4 3 7 6 7 5 2 6 5 4 3 3 3 8 4 2 11 14 5 2 4 4 5 4 2 3 5 3 3 6 4 3 4 2 3 4 5 6 4 4 3 21 27 32
11 2 5 10 5 9 1 2 4 3 4 3 4 2 9 7 4 9 15 15 7 4 5 7 2 3 4 6 5 9 2 1 2 2 2 4 3 7 7 8 9 7 5 14 20
9 2 6 10 9 5 3 4 3 5 2 2 6 5 5 2 1 3 7 4 3 4 2 7 4 4 7 3 6 2 1 5 4 3 3 3 3 5 5 7 8 8 6 4 11
6 1 7 10 8 4 4 6 5 3 3 3 4 4 3 3 2 2 6 5 5 3 3 5 4 3 3 1 3 6 6 4 5 5 4 2 3 7 8 9 6 11 9 4 7
3 1 7 13 9 3 7 5 1 1 4 2 4 3 5 5 3 3 5 4 2 5 2 1 6 4 1 4 5 3 6 5 2 1 5 3 1 5 5 15 13 3 6 14 14
1 1 5 13 7 5 4 3 5 4 3 3 3 4 1 1 2 1 4 6 8 9 5 3 4 3 5 3 3 3 4 4 6 3 2 2 3 4 5 7 11 9 17 18 18
1 2 8 13 8 5 4 4 4 4 5 2 3 3 5 3 5 5 4 4 5 12 6 5 2 3 4 2 10 7 4 4 4 1 3 5 4 5 2 3 7 6 14 18 23
2 4 10 13 8 2 3 6 6 8 3 1 1 4 2 2 3 3 4 2 3 3 6 4 4 6 3 6 2 4 3 6 5 3 4 2 5 5 7 3 5 7 11 19 28
2 3 15 13 3 2 2 5 4 6 1 2 2 3 3 3 3 1 3 2 9 6 5 0 5 3 2 4 3 2 3 4 5 3 1 3 5 2 5 2 8 9 2 14 23
2 5 15 10 3 2 4 4 4 3 4 4 3 4 5 3 4 3 3 5 8 5 4 4 2 3 5 6 3 4 1 5 5 3 3 4 5 5 6 5 2 4 4 5 14
2 3 4 5 2 4 2 5 3 4 2 4 4 4 4 5 6 3 4 4 8 5 8 5 3 5 6 4 3 3 2 3 5 3 3 5 6 5 7 7 6 7 3 1 3
3 1 3 3 3 2 1 2 3 3 2 8 4 5 4 3 3 3 3 5 6 10 5 4 3 2 2 2 0 2 3 4 5 5 6 6 6 4 6 7 7 8 6 4 6
3 2 2 2 0 2 3 3 1 1 2 3 6 3 2 5 2 4 1 1 2 5 3 3 2 2 2 2 4 4 6 7 3 3 4 3 1 3 6 13 17 12 9 6 6
4 4 1 4 2 3 2 3 2 1 8 6 7 5 6 4 4 2 5 4 2 1 3 2 6 4 5 3 2 4 5 3 3 2 3 4 2 2 6 11 12 12 11 11 9
Wind_Direction
312 304 296 288 282 278 271 264 256 248 240 235 239 261 281 288 285 286 275 278 299 319 337 337 351 360 73 163 181 146 63 150 212 157 221 180 165 166 114 138 184 185 172 177 166
304 296 290 284 279 274 267 262 258 247 240 233 235 254 284 297 296 268 270 272 288 306 322 342 0 358 44 111 184 114 114 217 209 180 191 202 190 158 125 170 227 195 206 191 171
297 290 285 279 275 271 266 261 255 246 238 229 233 249 280 308 311 285 233 289 336 321 339 358 4 352 27 7 228 196 190 179 237 205 185 201 106 161 134 220 224 195 165 173 175
290 282 276 272 270 267 263 258 253 244 237 230 230 242 272 303 216 104 2 22 358 335 348 8 359 15 22 9 358 330 280 203 197 196 178 187 156 165 189 249 275 216 178 177 184
285 275 269 265 264 261 259 253 249 239 234 229 228 236 267 275 260 282 20 37 28 24 2 359 7 12 0 304 331 223 275 238 225 205 196 205 229 199 226 229 217 178 181 185 192
282 270 261 257 258 255 251 247 242 234 230 226 225 228 249 269 215 229 284 335 16 40 19 353 352 345 302 296 271 309 290 267 244 221 220 186 216 204 251 211 185 182 188 196 199
285 267 256 251 250 247 243 239 235 231 225 221 225 229 244 235 196 206 229 339 9 18 239 348 342 330 312 316 329 289 307 325 251 230 214 181 283 227 233 196 180 189 192 200 205
295 269 253 244 239 237 233 230 230 226 221 218 224 239 251 247 227 202 264 306 9 60 306 326 337 312 304 316 351 34 46 5 286 163 245 152 260 262 212 192 184 191 196 202 207
309 275 251 236 228 221 218 215 218 217 212 214 220 228 256 243 226 222 255 277 346 88 314 318 317 11 24 44 15 8 319 310 314 223 102 171 264 289 197 195 188 194 200 205 212
321 285 248 220 207 197 191 182 190 196 198 198 224 262 252 103 214 225 221 246 34 11 360 23 22 55 40 52 330 319 338 314 258 287 167 206 271 256 200 195 199 201 206 211 215
347 296 235 200 187 181 173 148 157 192 209 202 193 231 243 11 160 209 200 209 111 56 39 18 44 241 266 208 216 245 213 252 258 267 189 245 267 276 209 212 207 207 209 216 220
356 339 213 183 179 175 174 156 105 56 294 242 249 258 266 293 285 181 187 181 106 108 37 14 274 268 236 213 207 214 250 278 294 254 123 312 270 266 210 221 217 210 210 218 223
356 350 176 173 177 182 176 141 351 267 298 262 235 249 246 203 211 171 180 171 105 111 127 162 241 309 353 358 155 206 197 247 232 338 14 355 307 318 321 273 258 233 233 228 227
354 355 164 171 173 170 163 229 296 221 70 262 233 223 181 155 302 190 200 165 39 225 171 252 288 260 328 291 154 300 209 244 276 56 278 48 275 308 337 15 31 203 227 236 235
351 339 178 168 155 144 148 338 137 158 83 160 190 186 172 170 142 204 200 205 168 194 103 249 241 295 315 239 165 230 359 74 33 114 62 1 66 279 353 356 346 350 209 232 241
342 301 189 182 152 130 14 141 147 40 63 183 140 154 118 206 107 106 174 174 169 162 298 241 272 228 219 238 185 72 64 46 59 72 33 302 109 308 339 298 299 325 338 293 234
334 277 188 175 157 114 116 139 38 113 342 186 176 160 130 151 241 163 155 172 169 106 305 318 247 267 229 250 29 75 52 351 6 10 229 352 68 243 296 317 305 319 323 84 172
347 196 183 175 151 107 142 50 110 244 244 28 112 91 155 158 230 142 109 171 177 92 95 107 346 16 20 208 150 86 129 145 220 261 277 302 17 271 319 330 337 354 102 112 133
60 140 176 177 165 137 153 77 224 207 300 352 85 93 240 204 139 155 165 185 205 168 180 160 277 313 32 6 100 163 55 165 103 8 44 269 309 323 349 337 353 62 100 110 122
36 145 148 161 150 147 79 245 254 214 330 2 162 135 172 223 151 156 186 195 222 188 167 211 320 8 298 14 33 102 158 44 14 170 289 305 269 228 201 283 319 36 102 131 136
91 110 147 149 153 134 158 235 278 284 266 216 195 116 164 137 147 191 202 24 344 32 150 132 118 293 26 27 324 358 24 61 111 121 173 226 270 213 185 245 326 340 146 159 165
106 71 157 153 70 36 176 209 304 289 284 269 104 87 106 78 73 176 141 294 338 150 129 83 132 114 125 296 289 122 129 105 112 261 44 141 279 318 166 334 325 315 328 192 181
94 99 163 183 142 264 284 276 255 321 323 6 39 61 54 70 96 58 9 332 23 72 133 183 22 53 10 354 349 68 124 116 112 98 201 145 263 68 38 346 252 256 318 239 221
133 92 147 216 166 137 346 286 299 338 43 51 46 59 83 53 20 90 19 338 11 72 79 110 106 148 194 212 160 171 204 94 113 113 191 231 278 344 348 283 217 216 211 291 265
46 97 146 204 273 151 120 292 309 10 53 34 51 31 135 96 35 47 358 351 13 12 45 83 135 159 208 219 238 234 222 184 182 186 168 242 213 304 317 274 228 151 129 97 63
62 58 102 104 30 146 135 211 209 130 38 15 95 20 122 126 172 172 135 11 261 351 54 17 187 135 289 193 196 254 237 248 245 121 278 271 197 328 23 101 96 93 103 74 43
52 54 22 359 66 102 230 307 343 131 45 102 136 91 66 150 166 311 255 270 273 188 165 124 137 119 240 15 5 306 254 199 148 98 193 201 182 47 29 53 65 69 70 61 45